Tracking 35334 objects as of 13-Sep-2026
HD Live streaming from Space Station
objects crossing your sky now

SARI-1

Track SARI-1 now!
10-day predictions


NORAD ID: 66668
Int'l Code: 2025-276C
Launch date: November 28, 2025
Source: Brazil (BRAZ)
Launch site: AIR FORCE WESTERN TEST RANGE (AFWTR)
Your satellite tracking list
Your tracking list is empty




NASA's NSSDC Master Catalog

Two Line Element Set (TLE):
1 66668U 25276C   26255.64922250  .00028293  00000-0  89909-3 0  9996
2 66668  97.3974 329.5449 0006436  66.0292 294.1624 15.32575655 43866
Source of the keplerian elements: AFSPC